Location: Gro� Glienicke
(52.4675°N, 13.1079°E)
Time: 01:22:26
(UTC+00:00)

Cosmos 2058 - Pass Details

Date: 06 July 2020
Orbit: 562 x 584 km, 82.5° (Epoch: 11 August)

Event Time Altitude Azimuth Distance (km) Brightness Sun altitude
Exits shadow 21:27:36 15° 178° (S) 1,587 4.6 -11.6°
Maximum altitude 21:30:59 67° 97° (E) 625 2.9 -11.8°
Drops below altitude 10° 21:35:07 10° 15° (NNE) 1,886 6.4 -12.0°
Sets 21:37:19 0° 13° (NNE) 2,785 7.4 -12.1°
